Current Weather Conditions: station 62122

sailwx.info

Wind from 220 at 20 knots

Wave height 2.3 meters (7 feet), 5 second period

Air temperature 8.3° C
Visibility: greater than 27.0 NM
Dewpoint 2.5° C

Last reported at 2020-Jan-26 02:00 UTC.
Time now 2020-Jan-26 03:10 UTC

Location: N 57°18' E 001°36'.
View on Google Maps.

See reports from other nearby stations

  
Tides and Currents Weather Stations Pressure Air Temp Water Temp Dewpoint Dewpoint Depression Visibility Wind Speed Wind Dir Waves Ship Positions
date/time (UTC)wind fromknots sea level pressurealtimeterstation pressurevisibilityair tempwater tempwave heightnotes
2020-Jan-26 02:00 220 20 27.0 8.3 2.3
2020-Jan-26 01:00 220 22 10.8 8.3 2.2
2020-Jan-26 00:00 220 20 10.8 8.3 2.1
2020-Jan-25 23:00 220 18 10.8 8.7 2.2
2020-Jan-25 22:00 220 19 10.8 8.7 2.4
2020-Jan-25 21:00 230 19 27.0 8.9 2.3
2020-Jan-25 20:00 230 21 27.0 8.4 2.2
2020-Jan-25 19:00 240 20 27.0 8.0 2.4
2020-Jan-25 18:00 240 22 27.0 7.5 2.4
2020-Jan-25 17:00 230 20 27.0 7.9 2.5
2020-Jan-25 16:00 230 22 27.0 8.0 2.6
2020-Jan-25 15:00 230 22 10.8 7.9 2.6
2020-Jan-25 14:00 230 20 27.0 8.3 2.5
2020-Jan-25 13:00 220 22 27.0 8.2 2.5
2020-Jan-25 12:00 220 20 27.0 8.3 2.2
2020-Jan-25 11:00 230 22 27.0 8.6 2.1
2020-Jan-25 10:00 220 20 27.0 8.4 1.8
2020-Jan-25 09:00 210 20 27.0 8.5 1.8
2020-Jan-25 08:00 210 17 27.0 8.3 1.7
2020-Jan-25 07:00 220 18 10.8 8.3 1.6
2020-Jan-25 06:00 210 14 27.0 8.4 1.6
2020-Jan-25 05:00 240 13 27.0 8.1 1.9
2020-Jan-25 04:00 220 13 10.8 8.4 1.8
2020-Jan-25 03:00 230 13 27.0 8.1 2.0
2020-Jan-25 02:00 220 13 27.0 7.9 2.1
2020-Jan-25 01:00 220 13 27.0 7.9 2.1
2020-Jan-25 00:00 230 12 27.0 7.9 2.0
2020-Jan-24 23:00 230 11 27.0 7.7 2.1
2020-Jan-24 22:00 250 9 27.0 7.5 2.1
2020-Jan-24 21:00 260 8 27.0 7.5 2.0
2020-Jan-24 20:00 270 8 27.0 7.4
2020-Jan-24 19:00 280 8 27.0 7.5 2.2
2020-Jan-24 18:00 290 11 27.0 7.6 2.4
2020-Jan-24 17:00 290 11 27.0 7.6 2.5
2020-Jan-24 16:00 290 11 27.0 7.7 2.5
2020-Jan-24 15:00 280 12 27.0 7.9 2.3
2020-Jan-24 14:00 310 13 27.0 8.0 2.6
2020-Jan-24 13:00 300 12 27.0 8.2 2.3
2020-Jan-24 12:00 290 12 27.0 8.4 2.2
2020-Jan-24 11:00 290 11 27.0 8.4 2.0
2020-Jan-24 10:00 290 11 27.0 8.3 2.0
2020-Jan-24 09:00 310 13 27.0 8.2 1.9
2020-Jan-24 08:00 310 11 27.0 8.2 2.0
2020-Jan-24 07:00 320 13 10.8 7.8 1.9
2020-Jan-24 06:00 290 9 2.2 8.2 2.0
2020-Jan-24 05:00 290 11 10.8 8.1 1.7
2020-Jan-24 04:00 270 9 2.2 8.0 1.6
2020-Jan-24 03:00 290 13 2.2 8.2 1.8